1497196801.16,28216,22.38,74304.5,8.77,-14.33,-21.03,0,*7F
1497196802.39,28217,22.38,74306.0,8.79,-12.79,-19.37,0,*74
1497196803.65,28218,22.38,74306.3,8.79,-17.55,-24.71,0,*7C
1497196804.87,28219,22.38,74302.3,8.79,-20.09,-26.13,0,*76
1497196806.12,28220,22.38,74302.8,8.81,-17.69,-23.33,0,*7E
1497196807.35,28221,22.38,74300.5,8.79,-18.11,-22.77,0,*79
1497196808.6,28222,22.38,74302.3,8.79,-15.85,-21.53,0,*7F
1497196809.83,28223,22.38,74296.8,8.79,-14.83,-19.51,0,*70
1497196811.06,28224,22.38,74302.5,8.79,-15.75,-19.65,0,*78
1497196812.26,28225,22.38,74300.0,8.79,-16.93,-20.43,0,*7C
1497196813.49,28226,22.38,74302.0,8.79,-15.89,-22.27,0,*77
1497196814.72,28227,22.38,74298.5,8.79,-15.01,-20.43,0,*76
1497196815.92,28228,22.38,74300.0,8.79,-14.23,-18.45,0,*75
1497196817.19,28229,22.38,74298.8,8.77,-15.89,-20.39,0,*7B
1497196818.46,28230,22.38,74298.3,8.75,-16.65,-19.65,0,*73
1497196819.69,28231,22.38,74300.3,8.73,-19.23,-22.07,0,*75
1497196820.94,28232,22.38,74298.5,8.71,-17.49,-20.99,0,*73
1497196822.19,28233,22.38,74304.0,8.73,-17.59,-24.25,0,*72
1497196823.42,28234,22.38,74306.0,8.69,-23.59,-27.39,0,*77
1497196824.67,28235,22.38,74302.0,8.67,-25.19,-27.39,0,*7A
1497196825.92,28236,22.38,74298.5,8.65,-25.75,-26.97,0,*74
1497196827.2,28237,22.38,74296.8,8.63,-25.81,-26.13,0,*74
1497196828.46,28238,22.38,74292.8,8.59,-26.29,-25.39,0,*78
1497196829.7,28239,22.38,74294.8,8.57,-23.69,-22.73,0,*7F
1497196830.97,28240,22.38,74292.8,8.55,-21.97,-21.97,0,*79
1497196832.17,28241,22.38,74292.0,8.53,-21.73,-22.37,0,*7D
1497196833.45,28242,22.38,74298.3,8.51,-21.27,-21.53,0,*7C
1497196834.68,28243,22.38,74296.5,8.49,-22.21,-21.77,0,*77
1497196835.89,28244,22.38,74296.8,8.45,-22.27,-20.73,0,*7F
1497196837.1,28245,22.38,74296.0,8.45,-22.57,-20.09,0,*74
1497196838.33,28246,22.38,74300.5,8.45,-23.75,-19.81,0,*7C
1497196839.57,28247,22.38,74294.0,8.45,-24.41,-19.17,0,*72
1497196840.81,28248,22.38,74292.3,8.41,-23.85,-18.41,0,*74
1497196842.06,28249,22.38,74292.5,8.41,-22.41,-17.17,0,*70
1497196843.32,28250,22.38,74294.0,8.41,-21.57,-15.29,0,*73
1497196844.59,28251,22.38,74296.8,8.41,-18.35,-13.37,0,*75
1497196845.84,28252,22.38,74296.0,8.41,-17.45,-13.11,0,*7A
1497196847.07,28253,22.38,74294.8,8.45,-16.45,-11.97,0,*72
1497196848.33,28254,22.38,74296.5,8.47,-12.47,-11.07,0,*78
1497196849.61,28255,22.38,74296.8,8.47,-12.61,-12.35,0,*7F
1497196850.8,28256,22.38,74298.8,8.49,-15.53,-13.93,0,*79
1497196852.03,28257,22.38,74300.5,8.49,-14.51,-14.69,0,*79
1497196853.29,28258,22.38,74298.8,8.51,-16.55,-16.27,0,*71
1497196854.52,28259,22.38,74298.0,8.53,-16.51,-14.23,0,*70
1497196855.77,28260,22.38,74298.3,8.55,-16.59,-17.55,0,*76
1497196857.02,28261,22.38,74298.5,8.55,-17.55,-16.83,0,*70
1497196858.3,28262,22.38,74300.8,8.55,-16.65,-16.17,0,*7C
1497196859.5,28263,22.38,74296.0,8.57,-17.83,-15.71,0,*75
1497196860.71,28264,22.38,74300.0,8.57,-15.75,-14.15,0,*7A
1497196861.94,28265,22.38,74304.3,8.57,-15.89,-14.19,0,*74
1497196863.19,28266,22.38,74300.5,8.57,-12.61,-10.41,0,*7F
1497196864.41,28267,22.38,74300.8,8.57,-9.15,-6.59,0,*79
1497196865.63,28268,22.38,74304.0,8.57,-6.43,-5.77,0,*75
1497196866.87,28269,22.38,74302.5,8.59,-5.19,-5.39,0,*7C
1497196868.11,28270,22.38,74302.0,8.59,-4.05,-4.73,0,*77
1497196869.39,28271,22.38,74302.0,8.63,-4.01,-5.81,0,*77
1497196870.61,28272,22.38,74302.8,8.65,-4.25,-5.81,0,*74
1497196871.85,28273,22.38,74306.8,8.69,-3.71,-5.11,0,*76
1497196873.1,28274,22.38,74304.8,8.71,-2.95,-5.27,0,*76
1497196874.34,28275,22.38,74300.3,8.73,-3.43,-6.93,0,*73
1497196875.57,28276,22.38,74300.3,8.75,-4.77,-8.21,0,*71
1497196876.81,28277,22.38,74300.8,8.77,-5.69,-8.41,0,*7A
1497196878.05,28278,22.38,74300.8,8.77,-6.73,-8.51,0,*7C
1497196879.29,28279,22.38,74304.0,8.79,-7.05,-7.77,0,*78
1497196880.52,28280,22.38,74302.8,8.79,-6.19,-7.11,0,*72
1497196881.73,28281,22.38,74300.8,8.85,-5.35,-7.15,0,*79
1497196882.97,28282,22.38,74302.8,8.87,-4.89,-7.69,0,*75
1497196884.18,28283,22.38,74302.0,8.87,-5.31,-9.01,0,*76
1497196885.4,28284,22.38,74302.8,8.89,-5.97,-10.23,0,*4B
1497196886.64,28285,22.38,74304.0,8.89,-6.43,-11.07,0,*47
1497196887.88,28286,22.38,74302.0,8.89,-6.73,-11.81,0,*49
1497196889.15,28287,22.38,74298.3,8.89,-6.63,-11.63,0,*45
1497196890.4,28288,22.38,74300.3,8.89,-5.85,-10.01,0,*44
1497196891.64,28289,22.38,74300.0,8.89,-5.03,-8.59,0,*7F
1497196892.82,28290,22.38,74298.0,8.91,-4.41,-7.23,0,*7B
1497196894.07,28291,22.38,74296.5,8.89,-3.63,-5.55,0,*77
1497196895.26,28292,22.38,74296.5,8.91,-2.95,-4.09,0,*7D
1497196896.45,28293,22.38,74296.0,8.91,-2.15,-3.07,0,*7D
1497196897.66,28294,22.38,74300.0,8.95,-1.25,-2.75,0,*7A
1497196898.87,28295,22.38,74298.5,8.95,-0.53,-2.75,0,*4B
1497196900.04,28296,22.38,74298.5,8.99,0.05,-2.95,0,*54
1497196901.3,28297,22.38,74296.8,9.01,0.51,-2.71,0,*6E
1497196902.5,28298,22.38,74300.8,9.03,-0.57,-5.89,0,*48
1497196903.74,28299,22.38,74302.5,9.05,-1.67,-9.61,0,*77
1497196904.95,28300,22.38,74302.5,9.05,-3.87,-14.23,0,*40
1497196906.16,28301,22.38,74302.5,9.05,-7.49,-19.03,0,*48
1497196907.4,28302,22.38,74304.0,9.05,-11.01,-23.03,0,*79
1497196908.64,28303,22.38,74300.8,9.03,-14.47,-26.39,0,*75
1497196909.86,28304,22.38,74296.8,9.03,-17.21,-27.67,0,*7B
1497196911.09,28305,22.38,74288.5,9.01,-19.95,-28.85,0,*7A
1497196912.31,28306,22.38,74290.0,8.99,-22.11,-29.13,0,*73
1497196913.53,28307,22.38,74294.8,8.95,-23.65,-28.85,0,*72
1497196914.78,28308,22.38,74290.5,8.93,-24.35,-28.47,0,*77
1497196916.0,28309,22.38,74286.0,8.89,-24.31,-27.77,0,*75
1497196917.23,28310,22.38,74286.0,8.89,-22.93,-25.23,0,*70
1497196918.47,28311,22.38,74286.5,8.89,-21.97,-23.89,0,*70
1497196919.72,28312,22.38,74286.5,8.89,-22.63,-24.25,0,*7A
1497196920.92,28313,22.38,74290.0,8.87,-19.51,-22.53,0,*7B
1497196922.14,28314,22.38,74290.0,8.85,-21.63,-24.47,0,*77
1497196923.36,28315,22.38,74296.0,8.85,-21.47,-25.91,0,*7A
1497196924.58,28316,22.38,74292.8,8.87,-22.63,-26.71,0,*73
1497196925.83,28317,22.38,74298.3,8.85,-23.65,-27.93,0,*7A
1497196927.08,28318,22.38,74296.3,8.81,-23.75,-28.47,0,*76
1497196928.29,28319,22.38,74294.0,8.79,-23.75,-28.37,0,*77
1497196929.52,28320,22.38,74294.8,8.79,-24.05,-28.21,0,*7A
1497196930.74,28321,22.38,74294.8,8.75,-24.93,-28.69,0,*74
1497196931.97,28322,22.38,74298.3,8.77,-23.43,-26.61,0,*79
1497196933.25,28323,22.38,74296.8,8.77,-22.31,-25.03,0,*7B
1497196934.51,28324,22.38,74298.3,8.77,-23.29,-25.49,0,*7A
1497196935.78,28325,22.38,74298.8,8.77,-24.25,-25.39,0,*77
1497196937.04,28326,22.38,74300.0,8.77,-24.21,-25.35,0,*7C
1497196938.27,28327,22.38,74300.0,8.77,-24.57,-26.39,0,*73
1497196939.53,28328,22.38,74300.8,8.77,-25.71,-26.07,0,*74
1497196940.79,28329,22.38,74296.0,8.77,-25.71,-26.61,0,*75
1497196942.07,28330,22.38,74296.8,8.77,-28.21,-28.59,0,*70
1497196943.32,28331,22.38,74296.0,8.77,-26.87,-26.71,0,*77
1497196944.55,28332,22.38,74300.3,8.75,-25.23,-25.09,0,*77
1497196945.82,28333,22.38,74302.8,8.75,-24.25,-24.11,0,*79
1497196947.04,28334,22.38,74302.5,8.73,-24.77,-23.49,0,*75
1497196948.27,28335,22.38,74300.3,8.73,-23.03,-22.37,0,*78
1497196949.46,28336,22.38,74296.5,8.73,-25.91,-25.13,0,*77
1497196950.72,28337,22.38,74300.3,8.71,-22.63,-20.49,0,*74
1497196951.96,28338,22.38,74300.3,8.71,-23.99,-21.43,0,*74
1497196953.2,28339,22.38,74302.5,8.71,-24.35,-22.93,0,*7A
1497196954.46,28340,22.38,74302.0,8.71,-24.47,-24.71,0,*7B
1497196955.68,28341,22.38,74302.8,8.71,-23.89,-24.05,0,*7C
1497196956.93,28342,22.38,74302.5,8.71,-21.93,-22.77,0,*75
1497196958.22,28343,22.38,74302.3,8.71,-24.21,-24.21,0,*7D
1497196959.42,28344,22.38,74300.3,8.69,-25.19,-24.77,0,*7A
1497196960.61,28345,22.38,74298.5,8.69,-25.35,-24.05,0,*70
1497196961.87,28346,22.38,74298.3,8.67,-24.57,-22.17,0,*7D
1497196963.07,28347,22.38,74300.8,8.65,-20.69,-19.71,0,*7F
1497196964.28,28348,22.38,74300.5,8.65,-18.83,-20.29,0,*78
1497196965.54,28349,22.38,74298.5,8.63,-19.13,-21.27,0,*78
1497196966.8,28350,22.38,74302.0,8.63,-19.57,-20.69,0,*7B
1497196968.08,28351,22.38,74302.8,8.63,-19.27,-18.59,0,*75
1497196969.33,28352,22.38,74302.0,8.59,-18.55,-17.31,0,*7A
1497196970.56,28353,22.38,74300.5,8.59,-16.79,-16.55,0,*78
1497196971.84,28354,22.38,74298.3,8.59,-16.17,-16.69,0,*78
1497196973.08,28355,22.38,74298.0,8.57,-15.35,-14.43,0,*7E
1497196974.28,28356,22.38,74296.0,8.57,-13.15,-12.97,0,*76
1497196975.51,28357,22.38,74298.5,8.57,-12.11,-12.29,0,*77
1497196976.79,28358,22.38,74294.8,8.55,-11.85,-12.75,0,*7D
1497196978.04,28359,22.38,74292.0,8.55,-11.63,-12.89,0,*77
1497196979.28,28360,22.38,74296.0,8.53,-9.15,-10.27,0,*45
1497196980.52,28361,22.38,74296.0,8.53,-7.39,-9.53,0,*7F
1497196981.77,28362,22.38,74300.3,8.53,-7.43,-7.57,0,*7B
1497196982.95,28363,22.38,74300.0,8.53,-6.85,-8.59,0,*70
1497196984.17,28364,22.38,74296.0,8.53,-5.81,-7.53,0,*75
1497196985.39,28365,22.38,74298.8,8.53,-4.13,-7.31,0,*7A
1497196986.61,28366,22.38,74300.5,8.53,-5.03,-7.83,0,*70
1497196987.83,28367,22.38,74298.5,8.53,-4.65,-7.39,0,*71
1497196989.08,28368,22.38,74300.8,8.53,-4.01,-6.63,0,*72
1497196990.32,28369,22.38,74296.8,8.55,-3.59,-6.35,0,*7C
1497196991.56,28370,22.38,74300.8,8.55,-3.71,-6.73,0,*7C
1497196992.8,28371,22.38,74300.3,8.55,-3.43,-6.73,0,*7C
1497196994.04,28372,22.38,74298.5,8.55,-3.59,-7.15,0,*75
1497196995.26,28373,22.38,74300.5,8.55,-2.99,-6.55,0,*7C
1497196996.47,28374,22.38,74296.8,8.55,-2.79,-6.55,0,*75
1497196997.66,28375,22.38,74296.0,8.57,-3.23,-6.43,0,*7F
1497196998.85,28376,22.38,74300.0,8.57,-3.23,-5.55,0,*78
1497197000.09,28377,22.38,74296.3,8.59,-3.19,-4.73,0,*7B
1497197001.34,28378,22.38,74296.8,8.57,-2.47,-3.59,0,*7F
1497197002.6,28379,22.38,74298.0,8.59,-1.87,-1.91,0,*79
1497197003.82,28380,22.38,74298.5,8.65,-1.17,-1.95,0,*7D
1497197005.04,28381,22.38,74300.3,8.65,-0.73,-1.87,0,*4C
1497197006.28,28382,22.38,74302.8,8.65,-0.97,-2.63,0,*4C
1497197007.53,28383,22.38,74302.0,8.65,-0.89,-2.51,0,*43
1497197008.77,28384,22.38,74296.8,8.67,-0.69,-2.71,0,*4A
1497197010.01,28385,22.38,74296.8,8.67,-0.97,-3.11,0,*4D
1497197011.25,28386,22.38,74300.0,8.67,-1.05,-2.83,0,*7E
1497197012.49,28387,22.38,74298.5,8.67,-0.81,-2.55,0,*49
1497197013.76,28388,22.38,74302.5,8.67,-1.09,-2.47,0,*74
1497197014.94,28389,22.38,74302.0,8.69,-0.29,-1.25,0,*4F
1497197016.14,28390,22.38,74296.8,8.69,-0.49,-1.95,0,*4A
1497197017.36,28391,22.38,74302.3,8.69,-0.49,-2.07,0,*43
1497197018.6,28392,22.38,74300.3,8.67,-0.33,-1.99,0,*47
1497197019.85,28393,22.38,74298.3,8.67,0.51,-1.05,0,*6A
1497197021.06,28394,22.38,74296.8,8.69,1.47,-0.81,0,*68
1497197022.27,28395,22.38,74298.5,8.69,1.09,-1.59,0,*57
1497197023.52,28396,22.38,74296.8,8.69,1.09,-1.83,0,*53
1497197024.76,28397,22.38,74300.3,8.69,1.21,-1.83,0,*58
1497197025.95,28398,22.38,74298.0,8.69,1.75,-1.79,0,*53
1497197027.2,28399,22.38,74302.5,8.71,2.13,-0.89,0,*66
1497197028.44,28400,22.38,74302.8,8.71,2.85,0.41,0,*47
1497197029.61,28401,22.38,74302.0,8.73,2.99,0.01,0,*7D
1497197030.81,28402,22.38,74300.0,8.73,2.85,-0.53,0,*69
1497197032.04,28403,22.38,74302.5,8.71,2.47,-1.21,0,*50
1497197033.27,28404,22.38,74300.8,8.73,2.05,-1.91,0,*58
1497197034.49,28405,22.38,74298.8,8.73,1.83,-2.51,0,*5B
1497197035.67,28406,22.38,74298.3,8.73,1.83,-2.87,0,*53
1497197036.87,28407,22.38,74302.0,8.73,1.55,-2.87,0,*59
1497197038.09,28408,22.38,74300.5,8.71,0.71,-3.19,0,*65
1497197039.3,28409,22.38,74302.3,8.73,-0.27,-3.87,0,*4F
1497197040.5,28410,22.38,74300.3,8.73,-1.17,-4.21,0,*7E
1497197041.74,28411,22.38,74302.0,8.71,-1.39,-3.03,0,*76
1497197042.97,28412,22.38,74302.8,8.71,-2.03,-3.19,0,*74
1497197044.21,28413,22.38,74300.5,8.71,-2.63,-2.91,0,*72
1497197045.48,28414,22.38,74300.8,8.71,-2.67,-2.51,0,*7D
1497197046.67,28415,22.38,74302.8,8.69,-3.07,-2.23,0,*77
1497197047.87,28416,22.38,74298.3,8.69,-2.95,-1.59,0,*70
1497197049.05,28417,22.38,74298.5,8.69,-2.23,-0.57,0,*43
1497197050.24,28418,22.38,74298.8,8.69,-1.67,-0.07,0,*7A
1497197051.41,28419,22.38,74300.0,8.69,-0.33,0.97,0,*5F
1497197052.62,28420,22.38,74296.8,8.69,0.37,1.63,0,*46
1497197053.85,28421,22.38,74296.3,8.69,1.51,2.47,0,*73
1497197055.08,28422,22.38,74302.8,8.67,1.75,2.59,0,*77
1497197056.31,28423,22.38,74302.5,8.69,1.93,2.85,0,*71
1497197057.52,28424,22.38,74298.5,8.69,2.47,2.95,0,*7D
1497197058.75,28425,22.38,74302.8,8.69,2.47,3.07,0,*76
1497197059.99,28426,22.38,74298.5,8.67,2.65,3.03,0,*7F
1497197061.21,28427,22.38,74302.0,8.69,2.69,2.55,0,*7E
1497197062.45,28428,22.38,74300.3,8.69,2.59,2.59,0,*7E
1497197063.65,28429,22.38,74304.0,8.69,2.69,2.65,0,*73
1497197064.89,28430,22.38,74300.8,8.69,2.81,2.85,0,*73
1497197066.11,28431,22.38,74302.0,8.69,3.03,3.19,0,*7D
1497197067.32,28432,22.38,74300.3,8.69,2.43,2.91,0,*7A
1497197068.55,28433,22.38,74300.3,8.71,2.99,3.41,0,*79
1497197069.78,28434,22.38,74302.3,8.71,3.29,3.79,0,*7F
1497197070.98,28435,22.38,74300.5,8.73,3.29,3.75,0,*70
1497197072.18,28436,22.38,74300.8,8.73,3.33,3.81,0,*73
1497197073.42,28437,22.38,74302.5,8.75,3.41,3.89,0,*79
1497197074.65,28438,22.38,74300.8,8.75,3.15,3.59,0,*7A
1497197075.85,28439,22.38,74300.3,8.77,3.29,3.59,0,*76
1497197077.06,28440,22.38,74298.5,8.77,2.91,2.95,0,*7B
1497197078.32,28441,22.38,74302.3,8.77,2.59,2.47,0,*71
1497197079.57,28442,22.38,74298.0,8.77,3.19,3.15,0,*71
1497197080.84,28443,22.38,74296.8,8.77,3.07,3.15,0,*7F
1497197082.07,28444,22.38,74302.0,8.79,3.71,3.79,0,*7D
1497197083.28,28445,22.38,74302.0,8.81,3.93,3.89,0,*78
1497197084.45,28446,22.38,74300.3,8.87,4.15,4.27,0,*77
1497197085.65,28447,22.38,74300.8,8.89,4.07,4.23,0,*7F
1497197086.85,28448,22.38,74298.3,8.91,4.15,4.01,0,*7A
1497197088.05,28449,22.38,74300.5,8.91,3.55,3.33,0,*7E
1497197089.26,28450,22.38,74302.3,8.91,3.41,3.29,0,*78
1497197090.49,28451,22.38,74300.0,8.95,3.67,3.49,0,*7F
1497197091.69,28452,22.38,74302.8,8.95,3.85,3.49,0,*70
1497197092.9,28453,22.38,74300.8,8.97,4.19,3.19,0,*74
1497197094.13,28454,22.38,74300.0,8.99,3.41,1.85,0,*70
1497197095.33,28455,22.38,74300.8,8.99,2.89,1.01,0,*78
1497197096.58,28456,22.38,74298.5,9.01,3.07,0.79,0,*42
1497197097.8,28457,22.38,74300.0,9.03,3.23,0.55,0,*49
1497197099.03,28458,22.38,74302.0,9.01,2.95,-0.23,0,*64
1497197100.22,28459,22.38,74300.8,9.03,2.31,-0.97,0,*66
1497197101.4,28460,22.38,74302.0,9.03,2.31,-0.73,0,*66
1497197102.6,28461,22.38,74300.3,9.03,1.79,-0.85,0,*61
1497197103.83,28462,22.38,74300.3,9.05,1.67,-0.41,0,*63
1497197105.05,28463,22.38,74298.5,9.05,1.55,-0.03,0,*55
1497197106.27,28464,22.38,74294.3,9.05,2.05,1.05,0,*7E
1497197107.5,28465,22.38,74298.5,9.09,2.59,1.59,0,*73
1497197108.71,28466,22.38,74294.8,9.05,2.35,1.43,0,*7D
1497197109.95,28467,22.38,74296.0,9.05,2.51,1.71,0,*7F
1497197111.17,28468,22.38,74292.0,9.05,2.27,1.51,0,*73
1497197112.38,28469,22.38,74294.5,9.09,2.99,2.39,0,*76
1497197113.6,28470,22.38,74294.8,9.05,2.95,2.43,0,*73
1497197114.85,28471,22.38,74294.5,9.05,2.89,2.43,0,*7F
1497197116.06,28472,22.38,74292.3,9.05,2.95,2.85,0,*7B
1497197117.28,28473,22.38,74294.0,9.05,2.99,2.85,0,*76
1497197118.5,28474,22.38,74292.5,9.05,3.19,2.99,0,*75
1497197119.69,28475,22.38,74294.5,9.05,3.59,3.55,0,*71
1497197120.91,28476,22.38,74294.3,9.05,3.79,3.55,0,*70
1497197122.11,28477,22.38,74298.3,9.03,4.23,4.01,0,*79
1497197123.28,28478,22.38,74298.3,9.03,4.33,4.11,0,*76
1497197124.45,28479,22.38,74296.8,9.03,4.27,4.15,0,*76
1497197125.65,28480,22.38,74298.0,9.05,4.19,3.93,0,*72
1497197126.85,28481,22.38,74292.0,9.05,4.27,3.81,0,*7D
1497197128.03,28482,22.38,74296.8,9.03,4.15,3.89,0,*71
1497197129.23,28483,22.38,74294.8,9.01,4.37,4.11,0,*74
1497197130.4,28484,22.38,74294.0,9.03,4.49,4.23,0,*79
1497197131.6,28485,22.38,74298.3,9.03,4.59,4.33,0,*78
1497197132.77,28486,22.38,74298.3,9.03,4.27,3.85,0,*78
1497197133.97,28487,22.38,74296.8,9.03,4.37,4.01,0,*73
1497197135.2,28488,22.38,74296.8,9.05,4.31,3.89,0,*7B
1497197136.4,28489,22.38,74296.3,9.05,4.15,3.89,0,*7C
1497197137.58,28490,22.38,74296.5,9.03,4.37,4.27,0,*71
1497197138.76,28491,22.38,74296.0,9.03,4.15,3.89,0,*73
1497197139.98,28492,22.38,74298.3,9.01,4.23,4.05,0,*74
1497197141.19,28493,22.38,74296.8,9.01,4.33,4.23,0,*70
1497197142.39,28494,22.38,74292.8,9.01,4.45,4.37,0,*73
1497197143.6,28495,22.38,74294.3,9.01,4.33,4.33,0,*77
1497197144.77,28496,22.38,74296.5,9.03,4.45,4.45,0,*76
1497197145.98,28497,22.38,74296.8,9.01,4.33,4.33,0,*75
1497197147.19,28498,22.38,74292.5,9.01,4.33,4.33,0,*7A
1497197148.4,28499,22.38,74296.0,9.01,4.33,4.33,0,*7B
1497197149.57,28500,22.38,74298.0,8.99,4.23,4.23,0,*7A
1497197150.79,28501,22.38,74296.8,8.99,4.31,4.31,0,*7B
1497197151.97,28502,22.38,74298.0,8.99,4.45,4.33,0,*79
1497197153.17,28503,22.38,74294.3,8.97,4.23,4.07,0,*71
1497197154.4,28504,22.38,74296.8,8.97,4.63,4.45,0,*74
1497197155.62,28505,22.38,74298.3,8.97,4.63,4.33,0,*74
1497197156.85,28506,22.38,74296.3,8.99,4.79,4.63,0,*77
1497197158.07,28507,22.38,74296.0,8.99,4.79,4.67,0,*72
1497197159.28,28508,22.38,74296.5,8.97,4.57,4.33,0,*7E
1497197160.5,28509,22.38,74296.0,8.97,4.31,4.23,0,*7E
1497197161.7,28510,22.38,74292.3,8.97,4.45,4.45,0,*75
1497197162.96,28511,22.38,74294.0,8.97,4.31,4.31,0,*74
1497197164.16,28512,22.38,74290.5,8.97,4.45,4.57,0,*74
1497197165.39,28513,22.38,74294.3,8.97,4.53,4.63,0,*75
1497197166.59,28514,22.38,74288.8,8.97,4.33,4.57,0,*73
1497197167.79,28515,22.38,74292.0,8.99,4.53,4.79,0,*76
1497197169.05,28516,22.38,74294.3,8.97,4.63,4.79,0,*78
1497197170.25,28517,22.38,74296.5,8.97,4.33,4.45,0,*73
1497197171.45,28518,22.38,74296.8,8.99,3.85,3.75,0,*7C
1497197172.7,28519,22.38,74294.8,8.97,3.53,3.49,0,*77
1497197173.89,28520,22.38,74298.5,8.97,3.81,3.63,0,*7A
1497197175.09,28521,22.38,74294.3,8.99,3.89,3.71,0,*7E
1497197176.29,28522,22.38,74296.8,8.97,4.19,4.11,0,*7C
1497197177.49,28523,22.38,74292.3,8.97,4.11,4.07,0,*72
1497197178.69,28524,22.38,74296.0,8.97,3.85,3.85,0,*72
1497197179.89,28525,22.38,74296.5,8.99,3.75,3.63,0,*7A
1497197181.12,28526,22.38,74296.5,8.97,3.75,3.63,0,*77
1497197182.34,28527,22.38,74298.5,8.97,3.81,3.75,0,*7A
1497197183.57,28528,22.38,74298.5,8.97,4.01,3.89,0,*79
1497197184.77,28529,22.38,74302.5,8.99,4.31,4.19,0,*7B
1497197185.93,28530,22.38,74296.5,8.99,4.45,4.23,0,*79
1497197187.17,28531,22.38,74292.3,9.01,4.37,4.05,0,*79
1497197188.37,28532,22.38,74296.3,9.01,4.81,4.45,0,*73
1497197189.54,28533,22.38,74296.0,9.03,4.81,4.45,0,*70
1497197190.74,28534,22.38,74296.5,9.03,5.07,4.71,0,*7F
1497197191.92,28535,22.38,74294.8,9.03,4.85,4.37,0,*77
1497197193.12,28536,22.38,74298.3,9.03,4.75,4.15,0,*7B
1497197194.34,28537,22.38,74296.5,9.03,4.59,4.05,0,*75
1497197195.57,28538,22.38,74296.0,9.09,4.75,3.97,0,*72
1497197196.78,28539,22.38,74298.8,9.09,4.79,3.93,0,*7B
1497197197.99,28540,22.38,74296.5,9.09,4.45,3.41,0,*75
1497197199.17,28541,22.38,74298.3,9.09,4.23,2.99,0,*70
1497197200.34,28542,22.38,74296.5,9.09,4.23,2.91,0,*7B
1497197201.54,28543,22.38,74296.8,9.13,4.33,3.19,0,*71
1497197202.8,28544,22.38,74296.0,9.11,4.31,3.37,0,*7A
1497197204.01,28545,22.38,74298.0,9.13,4.27,3.53,0,*7C
1497197205.26,28546,22.38,74300.3,9.15,4.31,3.67,0,*79
1497197206.46,28547,22.38,74300.3,9.15,4.15,3.55,0,*7F
1497197207.68,28548,22.38,74298.3,9.15,3.93,3.23,0,*78
1497197208.89,28549,22.38,74298.3,9.17,4.07,3.71,0,*76
1497197210.07,28550,22.38,74294.8,9.17,3.89,3.59,0,*75
1497197211.28,28551,22.38,74298.8,9.17,3.81,3.71,0,*76
1497197212.48,28552,22.38,74298.3,9.19,3.85,3.81,0,*70
1497197213.67,28553,22.38,74296.0,9.21,4.15,4.07,0,*7D
1497197214.85,28554,22.38,74298.0,9.21,4.27,4.11,0,*7C
1497197216.05,28555,22.38,74298.3,9.23,4.15,4.07,0,*79
1497197217.25,28556,22.38,74296.0,9.23,4.23,4.15,0,*7C
1497197218.48,28557,22.38,74294.3,9.23,3.97,3.89,0,*77
1497197219.71,28558,22.38,74298.0,9.27,3.93,4.05,0,*7B
1497197220.95,28559,22.38,74296.5,9.27,4.05,4.15,0,*73
1497197222.17,28560,22.38,74294.8,9.31,4.23,4.31,0,*7C
1497197223.38,28561,22.38,74296.8,9.27,4.37,4.37,0,*79
1497197224.61,28562,22.38,74300.5,9.27,4.41,4.31,0,*7D
1497197225.82,28563,22.38,74298.3,9.31,4.53,4.33,0,*7A
1497197227.0,28564,22.38,74296.0,9.33,4.37,4.11,0,*7D
1497197228.17,28565,22.38,74296.0,9.33,4.33,4.11,0,*78
1497197229.37,28566,22.38,74300.5,9.33,4.59,4.27,0,*72
1497197230.56,28567,22.38,74300.3,9.33,4.67,4.27,0,*7E
1497197231.78,28568,22.38,74296.8,9.35,4.49,3.97,0,*77
1497197233.01,28569,22.38,74300.5,9.35,4.07,3.41,0,*77
1497197234.26,28570,22.38,74298.5,9.35,3.97,3.37,0,*70
1497197235.46,28571,22.38,74298.5,9.37,4.11,3.79,0,*70
1497197236.64,28572,22.38,74298.3,9.37,4.37,3.81,0,*70
1497197237.87,28573,22.38,74296.5,9.39,4.27,3.45,0,*76
1497197239.09,28574,22.38,74296.8,9.39,4.11,3.23,0,*74
1497197240.34,28575,22.38,74296.0,9.41,3.97,3.23,0,*73
1497197241.54,28576,22.38,74298.3,9.43,3.85,3.19,0,*78
1497197242.74,28577,22.38,74298.5,9.43,4.19,3.67,0,*72
1497197243.92,28578,22.38,74298.3,9.43,4.23,3.89,0,*74
1497197245.13,28579,22.38,74298.3,9.43,4.59,4.11,0,*7E
1497197246.35,28580,22.38,74296.5,9.47,4.63,4.05,0,*70
1497197247.58,28581,22.38,74298.5,9.47,4.59,4.05,0,*78
1497197248.79,28582,22.38,74298.5,9.47,4.71,4.33,0,*74
1497197249.96,28583,22.38,74298.0,9.47,4.53,4.27,0,*70
1497197251.21,28584,22.38,74298.5,9.49,4.75,4.59,0,*74
1497197252.44,28585,22.38,74300.0,9.49,4.85,4.63,0,*73
1497197253.67,28586,22.38,74298.5,9.53,4.63,4.37,0,*72
1497197254.9,28587,22.38,74298.3,9.49,4.37,4.01,0,*7C
1497197256.12,28588,22.38,74296.5,9.49,3.63,3.11,0,*73
1497197257.35,28589,22.38,74298.3,9.49,2.99,2.69,0,*78
1497197258.57,28590,22.38,74300.0,9.49,3.23,2.95,0,*73
1497197259.8,28591,22.38,74300.0,9.49,3.81,3.53,0,*71
1497197261.03,28592,22.38,74300.5,9.49,3.81,3.45,0,*75
1497197262.29,28593,22.38,74298.3,9.53,4.05,3.45,0,*74
1497197263.51,28594,22.38,74298.5,9.49,3.55,2.89,0,*7B
1497197264.7,28595,22.38,74296.5,9.49,3.55,2.95,0,*77
1497197265.93,28596,22.38,74300.3,9.49,3.71,2.99,0,*7E
1497197267.16,28597,22.38,74302.0,9.49,3.63,2.59,0,*70
1497197268.36,28598,22.38,74296.8,9.49,2.99,1.79,0,*7A
1497197269.6,28599,22.38,74298.8,9.49,1.43,0.29,0,*4B
1497197270.8,28600,22.38,74296.8,9.47,0.79,-0.03,0,*6B
1497197272.05,28601,22.38,74298.3,9.45,1.25,0.47,0,*4D
1497197273.29,28602,22.38,74296.5,9.45,0.55,-0.11,0,*56
1497197274.54,28603,22.38,74296.8,9.45,1.09,0.37,0,*46
1497197275.78,28604,22.38,74292.5,9.43,1.37,0.55,0,*4E
1497197277.04,28605,22.38,74294.5,9.41,1.93,1.21,0,*71
1497197278.24,28606,22.38,74296.5,9.43,2.35,1.63,0,*79
1497197279.47,28607,22.38,74300.0,9.43,1.25,0.47,0,*4D
1497197280.71,28608,22.38,74296.5,9.41,0.63,0.13,0,*72
1497197281.9,28609,22.38,74296.8,9.43,0.41,-0.07,0,*69
1497197283.12,28610,22.38,74298.3,9.41,0.43,-0.27,0,*53
1497197284.34,28611,22.38,74298.3,9.41,0.25,-0.49,0,*5A
1497197285.57,28612,22.38,74298.0,9.41,-0.03,-0.85,0,*40
1497197286.8,28613,22.38,74300.0,9.41,-0.73,-1.13,0,*48
1497197288.02,28614,22.38,74298.0,9.41,-1.25,-1.17,0,*79
1497197289.28,28615,22.38,74300.8,9.41,-1.47,-1.13,0,*78
1497197290.46,28616,22.38,74296.8,9.43,-1.59,-0.69,0,*4A
1497197291.69,28617,22.38,74298.0,9.41,-1.59,-0.27,0,*43
1497197292.93,28618,22.38,74294.8,9.41,-1.25,0.21,0,*6C
1497197294.15,28619,22.38,74298.8,9.43,-0.93,0.55,0,*50
1497197295.38,28620,22.38,74298.0,9.41,-0.15,1.09,0,*6E
1497197296.61,28621,22.38,74296.0,9.41,0.83,1.83,0,*4F
1497197297.83,28622,22.38,74296.5,9.41,1.67,2.27,0,*7A
1497197299.07,28623,22.38,74298.5,9.41,2.51,2.61,0,*7F
1497197300.3,28624,22.38,74298.5,9.43,2.69,2.59,0,*7A
1497197301.5,28625,22.38,74296.0,9.43,2.69,2.31,0,*75
1497197302.73,28626,22.38,74298.3,9.43,2.09,1.51,0,*75
1497197303.96,28627,22.38,74296.3,9.43,1.71,0.55,0,*4D
1497197305.16,28628,22.38,74296.8,9.43,0.47,-0.57,0,*59
1497197306.39,28629,22.38,74296.3,9.41,-0.11,-0.85,0,*7B
1497197307.57,28630,22.38,74294.0,9.43,-0.11,-0.61,0,*7B
1497197308.79,28631,22.38,74296.5,9.43,0.51,0.47,0,*7A
1497197310.01,28632,22.38,74298.3,9.41,0.71,0.43,0,*7D
1497197311.26,28633,22.38,74298.5,9.41,0.87,0.59,0,*7E
1497197312.49,28634,22.38,74296.3,9.41,0.97,0.51,0,*70
1497197313.73,28635,22.38,74296.8,9.39,0.91,0.47,0,*7F
1497197314.93,28636,22.38,74296.5,9.43,0.97,0.37,0,*70
1497197316.15,28637,22.38,74298.3,9.41,0.95,-0.03,0,*6B
1497197317.38,28638,22.38,74300.0,9.41,0.63,-0.73,0,*5A
1497197318.57,28639,22.38,74300.8,9.39,0.09,-1.33,0,*5D
1497197319.77,28640,22.38,74302.0,9.37,-0.65,-1.95,0,*46